Tracking 25612 objects as of 21-May-2022
HD Live streaming from Space Station
objects crossing your sky now

COSMOS 1275 DEB

Track COSMOS 1275 DEB now!
10-day predictions


NORAD ID: 19853
Int'l Code: 1981-053MN
Perigee: 928.6 km
Apogee: 1,119.6 km
Inclination: 83.0 °
Period: 105.5 minutes
Semi major axis: 7395 km
RCS: 0.0046 m2 (small)
Launch date: June 4, 1981
Source: Commonwealth of Independent States (former USSR) (CIS)
Launch site: PLESETSK MISSILE AND SPACE COMPLEX (PKMTR)

Note: This is SATELLITE DEBRIS
aabbcc
Your satellite tracking list
Your tracking list is empty




NASA's NSSDC Master Catalog

Two Line Element Set (TLE):
1 19853U 81053MH  22140.33283606  .00000574  00000-0  65190-3 0  9993
2 19853  82.9878 264.8452 0129120  17.9515  11.0293 13.65170488491085
Source of the keplerian elements: AFSPC